Waarnemingen

Advertentie
Mijn weer
Gunnarn A, Zweden (2126): temperatuur & dauwpunt: 01.08.2020 23:00:00 - 07.08.2020 23:00:00 (CEST)Gunnarn A, Zweden (2126): windsnelheid & windstoten: 01.08.2020 23:00:00 - 07.08.2020 23:00:00 (CEST)Gunnarn A, Zweden (2126): windrichting: 01.08.2020 23:00:00 - 07.08.2020 23:00:00 (CEST)Gunnarn A, Zweden (2126): luchtdruk: 01.08.2020 23:00:00 - 07.08.2020 23:00:00 (CEST)Gunnarn A, Zweden (2126): zicht: 01.08.2020 23:00:00 - 07.08.2020 23:00:00 (CEST)Gunnarn A, Zweden (2126): neerslag: 01.08.2020 23:00:00 - 07.08.2020 23:00:00 (CEST)
Datum & Tijd tt [°C] td [°C] ff [km/u] ff [kn] fx [km/u] fx [kn] dd ppp [hPa] vv [km] rr [mm]
07.08.2020 23:00:00 16,9 16,3 3 2 8 4 Z 1021,0 48 0,0
07.08.2020 22:00:00 18,3 16,6 4 2 7 4 ZZO 1020,7 50 0,0
07.08.2020 21:00:00 20,3 16,5 4 2 7 4 Z 1020,4 50 0,0
07.08.2020 20:00:00 21,5 16,2 3 2 10 5 Z 1020,3 50 0,0
07.08.2020 19:00:00 22,7 15,5 4 2 10 5 ZO 1020,3 50 0,0
07.08.2020 18:00:00 22,9 16,7 3 1 10 6 ONO 1020,6 50 0,0
07.08.2020 17:00:00 24,2 14,6 5 3 10 6 NO 1020,7 50 0,0
07.08.2020 16:00:00 22,9 15,5 3 1 10 5 NNO 1021,0 50 0,0
07.08.2020 15:00:00 23,6 14,3 5 3 10 5 ZZO 1021,2 50 0,0
07.08.2020 14:00:00 23,4 13,6 4 2 13 7 Z 1021,7 50 0,0
07.08.2020 13:00:00 24,0 14,7 5 3 12 6 ZO 1021,7 46 0,0
07.08.2020 12:00:00 22,7 15,0 4 2 11 6 N 1022,1 46 0,0
07.08.2020 11:00:00 20,6 13,8 5 3 10 5 NW 1022,8 49 0,0
07.08.2020 10:00:00 19,9 14,7 7 4 14 7 NW 1023,0 50 0,0
07.08.2020 09:00:00 18,6 14,3 6 3 11 6 NW 1023,0 47 0,0
07.08.2020 08:00:00 17,8 15,2 5 3 9 5 NW 1023,2 50 0,0
07.08.2020 07:00:00 16,4 15,6 0 0 5 3 N 1023,2 50 0,0
07.08.2020 06:00:00 15,1 14,8 2 1 7 4 ONO 1022,9 50 0,0
07.08.2020 05:00:00 14,6 14,3 0 0 4 2 N 1022,8 45 0,0
07.08.2020 04:00:00 14,8 14,5 4 2 5 3 W 1022,6 50 0,0
07.08.2020 03:00:00 15,1 14,3 3 2 9 5 NNW 1022,4 13 0,0
07.08.2020 02:00:00 14,8 14,0 3 1 7 4 ZZW 1022,1 50 0,0
07.08.2020 01:00:00 14,4 13,9 0 0 5 3 N 1021,9 50 0,0
07.08.2020 00:00:00 14,3 14,0 3 1 6 3 ZZO 1021,7 50 0,0
06.08.2020 23:00:00 14,3 13,8 2 1 6 3 ONO 1021,3 50 0,0
06.08.2020 22:00:00 14,2 13,6 2 1 6 3 ZO 1020,9 50 0,0
06.08.2020 21:00:00 16,2 14,6 3 1 - - WZW 1020,1 50 0,0
06.08.2020 20:00:00 17,3 15,1 3 2 6 4 ZZW 1019,4 50 0,0
06.08.2020 19:00:00 18,3 14,4 0 0 8 5 N 1018,9 50 0,0
06.08.2020 18:00:00 20,0 13,5 4 2 9 5 ZZW 1018,4 49 0,0
06.08.2020 17:00:00 18,8 13,0 3 2 8 4 Z 1018,5 50 0,0
06.08.2020 16:00:00 20,1 11,3 4 2 11 6 ZZW 1017,8 46 0,0
06.08.2020 15:00:00 19,3 11,6 4 2 11 6 NW 1017,4 50 0,0
06.08.2020 14:00:00 17,4 11,4 4 2 12 7 OZO 1017,5 50 0,0
06.08.2020 13:00:00 17,7 11,7 5 3 10 6 OZO 1016,9 50 0,0
06.08.2020 12:00:00 15,6 11,8 3 2 10 6 OZO 1016,8 50 0,0
06.08.2020 11:00:00 15,0 12,1 5 3 9 5 Z 1016,1 50 0,0
06.08.2020 10:00:00 14,1 12,7 4 2 7 4 O 1015,6 50 0,0
06.08.2020 09:00:00 11,9 11,7 2 1 8 4 ZZO 1015,6 50 0,0
06.08.2020 08:00:00 10,9 10,7 3 2 6 3 ZW 1015,0 50 0,0
06.08.2020 07:00:00 9,7 9,6 2 1 6 4 ONO 1014,3 44 0,0
06.08.2020 06:00:00 8,9 8,8 2 1 4 2 NO 1013,9 0,3 0,0
06.08.2020 05:00:00 8,3 8,2 0 0 5 3 N 1013,4 0,1 0,0
06.08.2020 04:00:00 7,9 7,8 3 1 4 2 ZO 1012,7 0,1 0,0
06.08.2020 03:00:00 8,7 8,6 0 0 4 2 N 1012,1 0,1 0,0
06.08.2020 02:00:00 7,7 7,6 2 1 3 2 W 1011,7 0,2 0,0
06.08.2020 01:00:00 9,2 8,9 3 2 5 3 OZO 1011,2 0,3 0,0
06.08.2020 00:00:00 11,0 10,7 2 1 8 4 OZO 1010,5 - 0,0
05.08.2020 23:00:00 11,9 11,4 4 2 8 5 ZO 1010,0 50 0,0
05.08.2020 22:00:00 12,1 11,5 3 1 13 7 OZO 1009,7 50 0,6
05.08.2020 21:00:00 12,7 11,9 5 3 14 8 ZO 1009,2 8 1,5
05.08.2020 20:00:00 12,9 12,0 4 2 9 5 ZZW 1008,7 50 0,1
05.08.2020 19:00:00 13,2 12,1 5 3 12 6 ZZO 1008,4 30 0,1
05.08.2020 18:00:00 13,1 12,3 6 3 13 7 ONO 1008,4 50 0,9
05.08.2020 17:00:00 12,4 10,6 13 7 28 15 Z 1008,9 3,8 6,5
05.08.2020 16:00:00 16,8 10,9 7 4 13 7 ONO 1007,1 50 0,0
05.08.2020 15:00:00 14,9 9,5 11 6 31 17 ZW 1007,9 8 0,4
05.08.2020 14:00:00 18,1 6,6 4 2 14 8 W 1007,5 50 0,0
05.08.2020 13:00:00 17,9 8,2 11 6 21 11 ZZW 1007,7 47 0,0
05.08.2020 12:00:00 17,4 8,3 8 4 22 12 W 1007,8 50 0,0
05.08.2020 11:00:00 16,6 7,3 13 7 21 11 ZW 1008,0 50 0,0
05.08.2020 10:00:00 15,1 8,1 4 2 12 7 NNW 1008,3 50 0,0
05.08.2020 09:00:00 14,9 9,7 4 2 9 5 NNW 1008,4 48 0,0
05.08.2020 08:00:00 13,5 9,2 2 1 5 3 ZW 1008,7 45 0,0
05.08.2020 07:00:00 10,2 8,5 3 2 6 3 Z 1009,1 50 0,0
05.08.2020 06:00:00 8,3 8,0 0 0 5 3 N 1009,3 50 0,0
05.08.2020 05:00:00 5,3 5,2 2 1 8 5 ONO 1009,6 - 0,0
05.08.2020 04:00:00 4,0 3,7 0 0 7 4 N 1009,7 36 0,0
05.08.2020 03:00:00 4,3 4,2 0 0 9 5 N 1009,3 43 0,0
05.08.2020 02:00:00 5,5 5,2 0 0 9 5 N 1009,2 50 0,0
05.08.2020 01:00:00 5,9 5,5 2 1 7 4 ZW 1008,9 50 0,0
05.08.2020 00:00:00 7,1 5,7 4 2 14 8 W 1008,7 36 0,0
04.08.2020 23:00:00 10,0 6,7 6 4 16 9 NNW 1007,9 50 0,0
04.08.2020 22:00:00 11,1 6,4 11 6 17 9 W 1007,4 50 0,0
04.08.2020 21:00:00 13,1 6,4 11 6 24 13 W 1006,8 50 0,0
04.08.2020 20:00:00 15,2 7,2 13 7 26 14 W 1006,2 50 0,0
04.08.2020 19:00:00 15,9 7,4 11 6 23 13 W 1005,6 50 0,0
04.08.2020 18:00:00 15,9 7,6 16 8 27 15 W 1005,3 50 0,0
04.08.2020 17:00:00 17,1 7,2 17 9 28 15 W 1004,8 50 0,0
04.08.2020 16:00:00 17,8 7,5 11 6 21 11 WZW 1004,4 46 0,0
04.08.2020 15:00:00 16,0 7,2 16 9 27 14 WZW 1004,5 47 0,0
04.08.2020 14:00:00 15,2 8,2 13 7 24 13 W 1004,7 50 0,0
04.08.2020 13:00:00 15,3 8,3 15 8 21 11 W 1004,6 50 0,0
04.08.2020 12:00:00 14,0 9,2 12 7 24 13 W 1004,6 50 0,0
04.08.2020 11:00:00 13,4 10,0 11 6 19 11 W 1004,2 50 0,0
04.08.2020 10:00:00 12,9 10,8 12 6 19 10 WNW 1003,9 50 0,1
04.08.2020 09:00:00 11,2 9,9 10 5 22 12 WNW 1003,9 27 1,3
04.08.2020 08:00:00 10,9 10,4 11 6 23 13 WNW 1003,6 8 4,3
04.08.2020 07:00:00 11,7 10,3 12 6 24 13 WNW 1003,4 50 0,0
04.08.2020 06:00:00 12,0 10,7 11 6 19 10 WNW 1003,1 50 0,0
04.08.2020 05:00:00 11,9 11,0 9 5 14 8 WNW 1003,0 50 0,0
04.08.2020 04:00:00 11,3 11,1 4 2 5 3 Z 1003,1 12 0,0
04.08.2020 03:00:00 11,2 11,0 3 1 5 3 WZW 1003,1 24 0,0
04.08.2020 02:00:00 11,0 10,8 3 1 5 3 ZO 1003,2 9 0,0
04.08.2020 01:00:00 10,9 10,7 0 0 4 2 N 1003,1 11 0,0
04.08.2020 00:00:00 10,8 10,6 2 1 6 3 ZZW 1003,1 7 0,0
03.08.2020 23:00:00 11,0 10,7 3 1 7 4 ZO 1002,9 - 0,0
03.08.2020 22:00:00 11,6 11,1 4 2 10 5 O 1002,5 19 0,2
03.08.2020 21:00:00 11,9 11,3 7 4 13 7 Z 1002,9 9 2,1
03.08.2020 20:00:00 12,6 12,0 4 2 11 6 ZZO 1002,5 9 2,3
03.08.2020 19:00:00 13,2 12,4 4 2 13 7 ZZO 1002,3 9 1,5
03.08.2020 18:00:00 13,9 13,1 2 1 6 3 Z 1002,2 11 0,3
03.08.2020 17:00:00 13,9 12,9 2 1 26 14 ZW 1002,4 11 1,3
03.08.2020 16:00:00 16,5 9,7 6 3 19 10 ZZO 1001,9 50 0,0
03.08.2020 15:00:00 17,8 9,4 10 5 22 12 ZO 1001,8 44 0,0
03.08.2020 14:00:00 17,5 9,4 11 6 23 13 ZZO 1002,0 50 0,0
03.08.2020 13:00:00 18,0 8,6 11 6 27 15 O 1002,1 50 0,0
03.08.2020 12:00:00 17,9 9,5 10 5 22 12 O 1002,3 50 0,0
03.08.2020 11:00:00 17,2 8,9 11 6 32 18 OZO 1002,8 49 0,0
03.08.2020 10:00:00 15,3 8,8 9 5 23 13 ZO 1003,4 48 0,0
03.08.2020 09:00:00 14,3 9,3 7 4 19 11 OZO 1004,0 50 0,0
03.08.2020 08:00:00 12,4 10,3 8 5 16 9 OZO 1004,6 50 0,0
03.08.2020 07:00:00 12,0 10,2 6 4 17 9 O 1004,8 50 0,0
03.08.2020 06:00:00 12,0 10,7 6 3 16 9 OZO 1005,0 50 0,0
03.08.2020 05:00:00 11,8 10,7 5 3 12 7 O 1005,4 50 0,0
03.08.2020 04:00:00 11,3 10,7 2 1 8 5 ZO 1005,6 45 0,0
03.08.2020 03:00:00 10,8 10,2 3 2 8 5 ONO 1006,0 27 0,0
03.08.2020 02:00:00 11,7 10,6 0 0 10 6 N 1006,4 50 0,0
03.08.2020 01:00:00 12,7 10,9 4 2 12 7 O 1006,5 50 0,0
03.08.2020 00:00:00 13,6 10,9 6 3 16 9 OZO 1006,2 50 0,0
02.08.2020 23:00:00 13,4 11,6 3 2 9 5 OZO 1006,3 50 0,0
02.08.2020 22:00:00 14,5 11,8 5 3 11 6 O 1006,2 50 0,0
02.08.2020 21:00:00 14,8 12,3 3 2 6 4 ONO 1006,1 50 0,0
02.08.2020 20:00:00 16,7 13,4 2 1 7 4 O 1006,0 50 0,0
02.08.2020 19:00:00 17,9 11,7 4 2 17 9 ZO 1006,1 50 0,0
02.08.2020 18:00:00 19,4 11,7 10 5 20 11 Z 1006,1 48 0,0
02.08.2020 17:00:00 18,7 11,5 8 4 21 11 ZZO 1006,5 50 0,0
02.08.2020 16:00:00 20,0 12,5 10 5 23 12 ZZO 1006,8 50 0,0
02.08.2020 15:00:00 19,4 11,7 12 6 27 15 ZZO 1007,3 50 0,0
02.08.2020 14:00:00 19,9 10,6 13 7 29 16 ZZO 1007,3 50 0,0
02.08.2020 13:00:00 20,3 12,3 12 6 22 12 Z 1007,3 47 0,0
02.08.2020 12:00:00 19,7 12,0 10 5 22 12 ZO 1007,8 41 0,0
02.08.2020 11:00:00 18,6 13,2 9 5 21 11 ZZO 1008,4 40 0,0
02.08.2020 10:00:00 17,2 12,3 8 5 22 12 O 1008,8 50 0,0
02.08.2020 09:00:00 16,8 12,5 12 7 21 11 ONO 1009,1 42 0,0
02.08.2020 08:00:00 16,1 12,8 8 4 11 6 ONO 1009,4 8 0,0
02.08.2020 07:00:00 13,5 12,6 0 0 8 4 N 1009,9 38 0,0
02.08.2020 06:00:00 12,9 12,1 2 1 8 5 OZO 1010,2 50 0,0
02.08.2020 05:00:00 11,8 11,3 2 1 8 4 NNO 1010,5 34 0,0
02.08.2020 04:00:00 11,9 11,7 3 2 5 3 ONO 1010,4 13 0,0
02.08.2020 03:00:00 11,2 11,0 2 1 4 2 N 1010,6 0,8 0,0
02.08.2020 02:00:00 11,9 11,4 3 2 15 8 ZZO 1010,7 18 0,0
02.08.2020 01:00:00 12,7 12,5 2 1 5 3 NNW 1010,6 21 0,0
02.08.2020 00:00:00 12,9 12,3 4 2 5 3 ONO 1010,7 3,5 0,0
01.08.2020 23:00:00 12,8 12,0 4 2 6 3 WZW 1011,0 8 0,0

tt = temperatuur
td = dauwpunt
ff = windsnelheid
fx = windstoten
dd = windrichting
ppp = luchtdruk
vv = zicht
rr = neerslag

Weerstations in de omgeving